Overview Statistics Trail Chart Weather Telemetry Raw packets
 

This is the latest recevied weather packets stored in our database for station/object W6MAF. If no packets are shown the sender has not sent any weather packets the latest 10 day(s).

<< 28 29 30 31 32 33 34 >>
Time Temp. Humidity Pressure Rain* Wind** Luminosity Snow
1788474337 25.56° C 7% - 0 mm 6.26 m/s, 188° - -
1788474039 25.56° C 6% - 0 mm 5.36 m/s, 218° - -
1788473741 25.56° C 6% - 0 mm 5.36 m/s, 229° - -
1788473443 25° C 9% - 0 mm 4.02 m/s, 208° - -
1788473146 25° C 9% - 0 mm 3.58 m/s, 200° - -
1788472845 25° C 9% - 0 mm 6.71 m/s, 204° - -
1788472547 25° C 9% - 0 mm 5.36 m/s, 179° - -
1788472249 25° C 10% - 0 mm 4.47 m/s, 195° - -
1788471951 25° C 10% - 0 mm 4.02 m/s, 186° - -
1788471654 25° C 10% - 0 mm 6.71 m/s, 215° - -
1788471356 25° C 9% - 0 mm 5.36 m/s, 214° - -
1788471055 25° C 9% - 0 mm 0.45 m/s, 224° - -
1788470757 25° C 9% - 0 mm 5.36 m/s, 219° - -
1788470491 25° C 9% - 0 mm 4.92 m/s, 190° - -
1788470460 25° C 9% - 0 mm 4.92 m/s, 190° - -
1788470162 25° C 10% - 0 mm 4.47 m/s, 204° - -
1788469864 25° C 10% - 0 mm 6.26 m/s, 181° - -
1788469566 25° C 10% - 0 mm 5.36 m/s, 229° - -
1788469265 25° C 10% - 0 mm 5.36 m/s, 201° - -
1788468968 25° C 11% - 0 mm 4.92 m/s, 217° - -
1788468670 24.44° C 11% - 0 mm 6.26 m/s, 221° - -
1788468372 24.44° C 12% - 0 mm 6.26 m/s, 232° - -
1788468075 24.44° C 12% - 0 mm 4.47 m/s, 197° - -
1788467777 24.44° C 12% - 0 mm 3.58 m/s, 210° - -
1788467476 24.44° C 11% - 0 mm 4.92 m/s, 207° - -

* Rain latest hour (hover to see other rain measurements)
** Current wind speed in m/s (hover to see current wind gust speed)